Back to catalog

STARLINK-36581

AliveCommunicationsSSO
NORAD 67543·PAYLOAD·🇺🇸 United States

Launched Jan 22, 2026 from Vandenberg Space Force Base

Loading…

Next Passes (next 24 hours)

TLE

FreshSource: CelesTrak SupGP

Epoch: Sep 14, 2026, 22:47 UTC

1 67543C 26014M   26257.94979167  .00025800  00000+0  80113-3 0  2579
2 67543  97.2846 143.3930 0001722  92.6807  48.6179 15.33416419    13

Track STARLINK-36581 in real time with AllMySat

Download on the App Store